EW4329 Weather Reports


Display with metric or nautical units.
time (UTC)temp
F
wind
direction
speed
MPH
gust
MPH
rain 1hr
in
rain 24hr
in
rain mn
in
humidity
%
barometer
mb
20260505011537 45 13 6.0 17.0 0.00 0.00 0.00 56 1012.3
20260505010043 45 45 9.0 17.0 0.00 0.00 0.00 55 1012.4
20260505004555 46 37 12.0 19.0 0.00 0.00 0.00 54 1012.3
20260505003034 47 55 9.0 15.0 0.00 0.00 0.00 53 1012.1
20260505001536 47 75 10.0 16.0 0.00 0.00 0.00 53 1011.9
20260505000036 48 18 10.0 17.0 0.00 0.00 0.00 52 1011.6
20260504234532 48 20 8.0 16.0 0.00 0.00 0.00 51 1011.4
20260504233032 49 28 8.0 17.0 0.00 0.00 0.00 51 1011.1
20260504231535 50 46 8.0 15.0 0.00 0.00 0.00 50 1010.9
20260504230031 51 46 7.0 15.0 0.00 0.00 0.00 46 1010.8
20260504224534 51 71 8.0 17.0 0.00 0.00 0.00 46 1010.7
20260504223028 51 34 6.0 15.0 0.00 0.00 0.00 45 1010.6
20260504221535 50 29 6.0 17.0 0.00 0.00 0.00 46 1010.6
20260504220024 51 36 9.0 15.0 0.00 0.00 0.00 43 1010.8
20260504214523 50 58 8.0 13.0 0.00 0.00 0.00 44 1010.8
20260504213035 50 88 8.0 11.0 0.00 0.00 0.00 44 1010.7
20260504211520 50 54 5.0 15.0 0.00 0.00 0.00 50 1010.7
20260504210018 50 52 5.0 13.0 0.00 0.00 0.00 47 1010.7
20260504204516 50 54 5.0 14.0 0.00 0.00 0.00 49 1010.8
20260504203016 50 37 7.0 14.0 0.00 0.00 0.00 48 1010.7
20260504201515 49 23 5.0 10.0 0.00 0.00 0.00 49 1010.8
20260504200015 48 40 6.0 11.0 0.00 0.00 0.00 49 1010.8
20260504194518 48 56 9.0 16.0 0.00 0.00 0.00 50 1010.7
20260504193016 49 47 9.0 12.0 0.00 0.00 0.00 50 1010.8
20260504191510 48 40 8.0 15.0 0.00 0.00 0.00 53 1010.9
20260504190014 48 34 8.0 14.0 0.00 0.00 0.00 51 1010.7
20260504184526 48 68 6.0 14.0 0.00 0.00 0.00 52 1010.8
20260504183007 49 31 8.0 14.0 0.00 0.00 0.00 50 1010.9
20260504181507 49 26 7.0 15.0 0.00 0.00 0.00 49 1011.0
20260504180005 49 7 8.0 12.0 0.00 0.00 0.00 49 1010.9
20260504174504 49 23 5.0 15.0 0.00 0.00 0.00 50 1011.0
20260504173009 48 52 6.0 13.0 0.00 0.00 0.00 49 1011.1
20260504171501 48 30 5.0 15.0 0.00 0.00 0.00 49 1011.1
20260504081512 40 176 3.0 6.0 0.00 0.00 0.00 65 1009.3
20260504044549 44 67 1.0 4.0 0.00 0.00 0.00 58 1007.8
20260504043050 45 91 0.0 4.0 0.00 0.00 0.00 56 1007.7
20260504041547 46 73 0.0 4.0 0.00 0.00 0.00 55 1007.6
20260504040047 46 64 3.0 4.0 0.00 0.00 0.00 56 1007.5
20260504034554 48 96 0.0 2.0 0.00 0.00 0.00 53 1007.4
20260504033055 49 96 1.0 2.0 0.00 0.00 0.00 51 1007.1
20260504031600 51 103 1.0 2.0 0.00 0.00 0.00 46 1007.0
20260504030108 53 36 1.0 4.0 0.00 0.00 0.00 41 1006.7
20260504024549 55 248 1.0 5.0 0.00 0.00 0.00 40 1006.5
20260504023044 59 241 4.0 9.0 0.00 0.00 0.00 33 1006.3
20260504021545 61 249 6.0 12.0 0.00 0.00 0.00 30 1006.3
20260504020046 63 253 5.0 11.0 0.00 0.00 0.00 31 1006.3
20260504014542 63 251 8.0 12.0 0.00 0.00 0.00 29 1006.3
20260504013041 64 293 11.0 18.0 0.00 0.00 0.00 27 1006.2
20260504011540 65 269 11.0 15.0 0.00 0.00 0.00 27 1006.4